This is the latest recevied weather packets stored in our database for station/object SP2OFR-13. If no packets are shown the sender has not sent any weather packets the latest 10 day(s).
| Time | Temp. | Humidity | Pressure | Rain* | Wind** | Luminosity | Snow |
|---|---|---|---|---|---|---|---|
| 1778285882 | 7.22° C | 83% | 1025.9 hPa | 0 mm | - | - | - |
| 1778285281 | 7.22° C | 82% | 1024.9 hPa | 0 mm | - | - | - |
| 1778284680 | 7.22° C | 82% | 1024.9 hPa | 0 mm | - | - | - |
| 1778284080 | 7.22° C | 82% | 1024.9 hPa | 0 mm | - | - | - |
| 1778283479 | 7.22° C | 83% | 1023.9 hPa | 0 mm | - | - | - |
| 1778282878 | 7.22° C | 84% | 1022.9 hPa | 0 mm | - | - | - |
| 1778282278 | 7.22° C | 84% | 1022.9 hPa | 0 mm | - | - | - |
| 1778281677 | 7.22° C | 83% | 1024.9 hPa | 0 mm | - | - | - |
| 1778281077 | 7.22° C | 83% | 1025.9 hPa | 0 mm | - | - | - |
| 1778280475 | 7.22° C | 81% | 1023.9 hPa | 0 mm | - | - | - |
| 1778279874 | 7.22° C | 81% | 1023.9 hPa | 0 mm | - | - | - |
| 1778279274 | 7.78° C | 78% | 1022.9 hPa | 0 mm | - | - | - |
| 1778278673 | 7.78° C | 76% | 1022.9 hPa | 0 mm | - | - | - |
| 1778278072 | 8.33° C | 72% | 1024.9 hPa | 0 mm | - | - | - |
| 1778277471 | 8.33° C | 70% | 1025.9 hPa | 0 mm | - | - | - |
| 1778276870 | 8.33° C | 70% | 1024.9 hPa | 0 mm | - | - | - |
| 1778276270 | 8.33° C | 69% | 1023.9 hPa | 0 mm | - | - | - |
| 1778275669 | 8.89° C | 67% | 1022.9 hPa | 0 mm | - | - | - |
| 1778275068 | 8.89° C | 66% | 1022.9 hPa | 0 mm | - | - | - |
| 1778274467 | 8.89° C | 65% | 1025.4 hPa | 0 mm | - | - | - |
| 1778273866 | 8.89° C | 65% | 1025.9 hPa | 0 mm | - | - | - |
| 1778273266 | 8.89° C | 64% | 1025.9 hPa | 0 mm | - | - | - |
| 1778272665 | 8.89° C | 64% | 1025.9 hPa | 0 mm | - | - | - |
| 1778272064 | 9.44° C | 63% | 1025.9 hPa | 0 mm | - | - | - |
| 1778271463 | 9.44° C | 63% | 1025.9 hPa | 0 mm | - | - | - |
* Rain latest hour (hover to see other rain measurements)
** Current wind speed in m/s (hover to see current wind gust speed)